Location: Mount Cross
(36.6390°N, 79.4878°W)
Time: 00:33:30
(UTC+00:00)

Vanguard 2 Rocket - Pass Details

Date: 29 March 2023
Orbit: 554 x 3314 km, 32.9° (Epoch: 08 June)

Event Time Altitude Azimuth Distance (km) Brightness Sun altitude
Rises 01:47:19 0° 266° (W) 3,608 10.9 -26.0°
Reaches altitude 10° 01:49:25 10° 263° (W) 2,893 10.2 -26.4°
Maximum altitude 01:56:36 71° 181° (S) 1,612 7.9 -27.7°
Enters shadow 01:59:53 49° 116° (ESE) 2,184 8.3 -28.2°
